�������l�o���
Date,Time,MP-1(��Sv/h),MP-2(��Sv/h),MP-3(��Sv/h),MP-4(��Sv/h),MP-5(��Sv/h),MP-6(��Sv/h),MP-7(��Sv/h),MP-8(��Sv/h),����,����(m/s),���J
2023/09/13,00:00,0.527,0.798,0.486,0.981,0.700,0.322,0.569,0.528,�쐼,0.6,��
2023/09/13,00:10,0.528,0.798,0.487,0.978,0.697,0.322,0.569,0.527,�쐼,0.9,��
2023/09/13,00:20,0.529,0.797,0.488,0.980,0.699,0.322,0.569,0.529,�쐼,1.1,��
2023/09/13,00:30,0.527,0.797,0.488,0.982,0.698,0.322,0.569,0.528,��쐼,1.7,��
2023/09/13,00:40,0.527,0.798,0.487,0.981,0.698,0.322,0.570,0.528,��쐼,2.0,��
2023/09/13,00:50,0.528,0.798,0.488,0.978,0.697,0.321,0.570,0.527,��쐼,2.6,��
2023/09/13,01:00,0.528,0.799,0.488,0.981,0.698,0.322,0.570,0.529,��쐼,3.1,��
2023/09/13,01:10,0.526,0.797,0.487,0.983,0.698,0.323,0.569,0.530,�쐼,2.3,��
2023/09/13,01:20,0.527,0.797,0.487,0.980,0.696,0.321,0.569,0.530,�쐼,2.6,��
2023/09/13,01:30,0.529,0.797,0.488,0.980,0.698,0.322,0.568,0.528,���쐼,2.6,��
2023/09/13,01:40,0.528,0.797,0.487,0.980,0.699,0.322,0.570,0.530,���쐼,2.2,��
2023/09/13,01:50,0.526,0.795,0.488,0.979,0.698,0.322,0.571,0.530,�쐼,2.3,��
2023/09/13,02:00,0.527,0.798,0.489,0.982,0.698,0.321,0.569,0.529,��쐼,2.0,��
2023/09/13,02:10,0.527,0.797,0.488,0.982,0.698,0.322,0.569,0.530,�쐼,2.5,��
2023/09/13,02:20,0.528,0.796,0.488,0.981,0.699,0.323,0.570,0.529,��쐼,2.2,��
2023/09/13,02:30,0.525,0.795,0.487,0.980,0.698,0.322,0.570,0.529,��쐼,1.5,��
2023/09/13,02:40,0.528,0.796,0.488,0.980,0.701,0.322,0.568,0.531,��쐼,2.0,��
2023/09/13,02:50,0.527,0.797,0.487,0.980,0.699,0.322,0.570,0.529,��,1.7,��
2023/09/13,03:00,0.529,0.796,0.486,0.981,0.699,0.322,0.570,0.529,��쐼,1.5,��
2023/09/13,03:10,0.528,0.797,0.487,0.981,0.698,0.320,0.572,0.528,�쐼,1.2,��
2023/09/13,03:20,0.527,0.797,0.489,0.979,0.697,0.322,0.570,0.529,��쐼,1.2,��
2023/09/13,03:30,0.527,0.797,0.489,0.981,0.696,0.322,0.570,0.530,-,CALM,��
2023/09/13,03:40,0.528,0.797,0.487,0.981,0.697,0.323,0.570,0.530,-,CALM,��
2023/09/13,03:50,0.529,0.796,0.487,0.980,0.699,0.321,0.571,0.529,��,0.6,��
2023/09/13,04:00,0.529,0.796,0.487,0.980,0.697,0.322,0.569,0.530,���쐼,0.6,��
2023/09/13,04:10,0.528,0.797,0.487,0.981,0.698,0.322,0.570,0.529,�쐼,1.1,��
2023/09/13,04:20,0.527,0.798,0.488,0.980,0.700,0.321,0.570,0.531,���k��,1.7,��
2023/09/13,04:30,0.527,0.796,0.487,0.978,0.698,0.321,0.571,0.528,���쐼,0.9,��
2023/09/13,04:40,0.527,0.797,0.487,0.980,0.697,0.322,0.568,0.529,���쐼,0.8,��
2023/09/13,04:50,0.527,0.797,0.487,0.978,0.698,0.321,0.570,0.528,��,1.2,��
2023/09/13,05:00,0.528,0.798,0.487,0.982,0.696,0.323,0.571,0.529,��,1.4,��
2023/09/13,05:10,0.527,0.796,0.486,0.979,0.698,0.321,0.571,0.532,�k��,1.5,��
2023/09/13,05:20,0.526,0.795,0.486,0.979,0.698,0.322,0.570,0.529,�k��,3.1,��
2023/09/13,05:30,0.529,0.794,0.488,0.979,0.697,0.323,0.572,0.529,�k��,4.3,��
2023/09/13,05:40,0.530,0.798,0.487,0.980,0.697,0.322,0.570,0.528,�k��,3.8,��
2023/09/13,05:50,0.529,0.796,0.487,0.981,0.699,0.322,0.571,0.528,�k��,3.8,��
2023/09/13,06:00,0.528,0.798,0.487,0.981,0.698,0.321,0.570,0.530,�k��,4.7,��
2023/09/13,06:10,0.528,0.796,0.488,0.981,0.699,0.323,0.572,0.530,�k��,4.4,��
2023/09/13,06:20,0.528,0.796,0.488,0.980,0.697,0.322,0.570,0.529,�k��,4.3,��
2023/09/13,06:30,0.528,0.796,0.488,0.982,0.697,0.323,0.571,0.530,�k��,4.2,��
2023/09/13,06:40,0.530,0.797,0.488,0.981,0.696,0.322,0.573,0.530,�k��,4.4,��
2023/09/13,06:50,0.527,0.796,0.487,0.979,0.696,0.322,0.571,0.530,�k��,4.4,��
2023/09/13,07:00,0.527,0.796,0.488,0.980,0.697,0.321,0.571,0.531,�k��,3.3,��
2023/09/13,07:10,0.528,0.794,0.487,0.982,0.698,0.321,0.571,0.529,�k��,3.3,��
2023/09/13,07:20,0.528,0.796,0.488,0.979,0.698,0.322,0.572,0.531,�k��,3.4,��
2023/09/13,07:30,0.528,0.798,0.487,0.980,0.698,0.321,0.572,0.530,�k�k��,3.6,��
2023/09/13,07:40,0.529,0.795,0.486,0.981,0.697,0.320,0.572,0.530,�k�k��,2.6,��
2023/09/13,07:50,0.526,0.796,0.486,0.982,0.698,0.321,0.571,0.531,�k,2.5,��
2023/09/13,08:00,0.528,0.795,0.487,0.978,0.698,0.320,0.574,0.529,�k�k��,2.0,��
2023/09/13,08:10,0.527,0.795,0.488,0.980,0.697,0.321,0.574,0.530,�k,2.5,��
2023/09/13,08:20,0.527,0.796,0.487,0.981,0.698,0.320,0.573,0.532,�k,3.1,��
2023/09/13,08:30,0.527,0.795,0.487,0.979,0.696,0.321,0.571,0.530,�k,2.9,��
2023/09/13,08:40,0.528,0.796,0.488,0.981,0.697,0.321,0.572,0.529,�k�k��,2.6,��
2023/09/13,08:50,0.527,0.794,0.486,0.980,0.697,0.322,0.570,0.528,�k�k��,2.0,��
2023/09/13,09:00,0.528,0.797,0.487,0.981,0.696,0.321,0.571,0.526,�k��,2.3,��
2023/09/13,09:10,0.526,0.796,0.486,0.981,0.697,0.322,0.570,0.529,�k��,2.3,��
2023/09/13,09:20,0.529,0.795,0.485,0.979,0.697,0.322,0.571,0.527,�k��,2.3,��
2023/09/13,09:30,0.527,0.796,0.487,0.978,0.698,0.320,0.569,0.529,�k��,2.2,��
2023/09/13,09:40,0.527,0.797,0.487,0.980,0.697,0.320,0.570,0.529,�k��,2.6,��
2023/09/13,09:50,0.526,0.796,0.486,0.982,0.697,0.321,0.570,0.529,�k��,2.9,��
2023/09/13,10:00,0.528,0.798,0.487,0.981,0.699,0.319,0.571,0.530,���k��,3.4,��
2023/09/13,10:10,0.528,0.797,0.487,0.981,0.698,0.321,0.571,0.529,�k��,3.1,��
2023/09/13,10:20,0.528,0.796,0.487,0.980,0.699,0.322,0.569,0.530,���k��,3.3,��
2023/09/13,10:30,0.527,0.797,0.486,0.982,0.698,0.322,0.572,0.530,��,3.9,��
2023/09/13,10:40,0.528,0.795,0.487,0.980,0.699,0.321,0.570,0.530,���k��,3.4,��
2023/09/13,10:50,0.528,0.796,0.487,0.982,0.699,0.321,0.572,0.529,���k��,3.4,��
2023/09/13,11:00,0.527,0.798,0.487,0.982,0.697,0.321,0.569,0.529,�k��,3.3,��
2023/09/13,11:10,0.528,0.798,0.488,0.981,0.701,0.320,0.572,0.530,���k��,3.0,��
2023/09/13,11:20,0.528,0.799,0.487,0.981,0.699,0.320,0.571,0.530,���k��,3.2,��
2023/09/13,11:30,0.529,0.799,0.488,0.979,0.702,0.322,0.572,0.530,�k��,2.3,��
2023/09/13,11:40,0.529,0.800,0.487,0.982,0.700,0.320,0.572,0.530,���k��,2.5,��
2023/09/13,11:50,0.529,0.799,0.487,0.984,0.700,0.322,0.570,0.529,�k��,2.2,��
2023/09/13,12:00,0.529,0.799,0.486,0.981,0.701,0.321,0.571,0.529,���쓌,2.6,��
2023/09/13,12:10,0.528,0.800,0.489,0.981,0.700,0.320,0.570,0.530,�k��,2.8,��
2023/09/13,12:20,0.529,0.802,0.488,0.982,0.701,0.322,0.570,0.531,���k��,2.0,��
2023/09/13,12:30,0.528,0.801,0.487,0.982,0.702,0.320,0.570,0.530,���k��,2.5,��
2023/09/13,12:40,0.529,0.801,0.488,0.982,0.699,0.321,0.572,0.530,��,2.5,��
2023/09/13,12:50,0.530,0.801,0.488,0.981,0.699,0.321,0.570,0.531,���쓌,2.0,��
2023/09/13,13:00,0.530,0.801,0.491,0.982,0.700,0.321,0.572,0.530,�쓌,3.3,��
2023/09/13,13:10,0.528,0.801,0.487,0.983,0.701,0.321,0.572,0.530,�쓌,3.7,��
2023/09/13,13:20,0.531,0.800,0.489,0.983,0.702,0.320,0.569,0.532,���쓌,3.0,��
2023/09/13,13:30,0.530,0.801,0.488,0.982,0.700,0.321,0.572,0.529,�쓌,3.1,��
2023/09/13,13:40,0.531,0.802,0.490,0.982,0.702,0.321,0.570,0.530,���쓌,4.1,��
2023/09/13,13:50,0.531,0.802,0.489,0.984,0.702,0.321,0.570,0.531,�쓌,2.6,��
2023/09/13,14:00,0.530,0.799,0.488,0.983,0.702,0.321,0.569,0.530,��쓌,3.5,��
2023/09/13,14:10,0.532,0.801,0.489,0.981,0.702,0.321,0.572,0.531,�쓌,3.1,��
2023/09/13,14:20,0.531,0.801,0.490,0.981,0.702,0.322,0.570,0.531,�쓌,4.0,��
2023/09/13,14:30,0.529,0.799,0.489,0.984,0.702,0.321,0.571,0.529,�쓌,4.8,��
2023/09/13,14:40,0.530,0.799,0.489,0.984,0.705,0.321,0.571,0.530,�쓌,3.3,��
2023/09/13,14:50,0.530,0.802,0.488,0.984,0.701,0.321,0.570,0.530,�쓌,4.4,��
2023/09/13,15:00,0.532,0.801,0.488,0.984,0.700,0.321,0.572,0.531,�쓌,4.7,��
2023/09/13,15:10,0.530,0.804,0.489,0.985,0.701,0.323,0.572,0.532,��쓌,4.5,��
2023/09/13,15:20,0.530,0.799,0.489,0.982,0.703,0.323,0.574,0.530,��쓌,4.5,��
2023/09/13,15:30,0.531,0.802,0.489,0.985,0.704,0.322,0.570,0.532,�쓌,2.8,��
2023/09/13,15:40,0.531,0.802,0.489,0.985,0.703,0.321,0.571,0.530,�쓌,3.4,��
2023/09/13,15:50,0.531,0.801,0.488,0.984,0.702,0.321,0.572,0.531,�쓌,2.2,��
2023/09/13,16:00,0.529,0.802,0.490,0.981,0.704,0.321,0.571,0.530,�쓌,2.5,��
2023/09/13,16:10,0.532,0.802,0.490,0.982,0.700,0.320,0.571,0.530,�쓌,2.9,��
2023/09/13,16:20,0.529,0.803,0.488,0.981,0.703,0.320,0.570,0.531,���쓌,1.5,��
2023/09/13,16:30,0.529,0.802,0.488,0.984,0.702,0.320,0.569,0.530,�쓌,1.5,��
2023/09/13,16:40,0.528,0.802,0.487,0.985,0.703,0.321,0.570,0.529,��,1.9,��
2023/09/13,16:50,0.530,0.802,0.489,0.983,0.704,0.321,0.569,0.528,��쓌,4.6,��
2023/09/13,17:00,0.529,0.800,0.489,0.984,0.702,0.322,0.569,0.529,��쓌,3.6,��
2023/09/13,17:10,0.528,0.803,0.488,0.986,0.705,0.322,0.570,0.530,��쓌,3.7,��
2023/09/13,17:20,0.529,0.802,0.490,0.984,0.701,0.321,0.570,0.527,��쓌,3.9,��
2023/09/13,17:30,0.529,0.802,0.488,0.986,0.703,0.321,0.570,0.530,��쓌,3.9,��
2023/09/13,17:40,0.529,0.801,0.488,0.985,0.701,0.320,0.568,0.531,��,4.2,��
2023/09/13,17:50,0.529,0.802,0.489,0.985,0.703,0.322,0.570,0.529,��,5.3,��
2023/09/13,18:00,0.529,0.801,0.489,0.983,0.703,0.321,0.569,0.531,��,5.2,��
2023/09/13,18:10,0.530,0.803,0.489,0.984,0.705,0.321,0.570,0.531,��쓌,6.4,��
2023/09/13,18:20,0.529,0.801,0.486,0.985,0.704,0.321,0.570,0.530,��쓌,6.0,��
2023/09/13,18:30,0.530,0.803,0.488,0.985,0.704,0.322,0.570,0.530,��쓌,5.6,��
2023/09/13,18:40,0.528,0.804,0.488,0.984,0.706,0.322,0.569,0.531,��쓌,6.0,��
2023/09/13,18:50,0.527,0.804,0.489,0.986,0.706,0.321,0.570,0.531,��쓌,5.5,��
2023/09/13,19:00,0.529,0.804,0.489,0.985,0.704,0.321,0.571,0.531,��쓌,5.3,��
2023/09/13,19:10,0.529,0.802,0.489,0.985,0.705,0.323,0.569,0.528,��쓌,5.3,��
2023/09/13,19:20,0.528,0.805,0.490,0.985,0.703,0.323,0.570,0.531,��쓌,5.1,��
2023/09/13,19:30,0.530,0.807,0.490,0.986,0.705,0.321,0.570,0.531,��쓌,5.9,��
2023/09/13,19:40,0.530,0.803,0.489,0.986,0.704,0.322,0.569,0.530,��쓌,6.0,��
2023/09/13,19:50,0.529,0.806,0.491,0.985,0.703,0.323,0.570,0.531,��쓌,6.1,��
2023/09/13,20:00,0.531,0.804,0.492,0.987,0.704,0.322,0.572,0.529,��,5.4,��
2023/09/13,20:10,0.528,0.804,0.490,0.986,0.706,0.322,0.570,0.529,��,4.4,��
2023/09/13,20:20,0.531,0.804,0.489,0.987,0.703,0.324,0.571,0.530,��,4.0,��
2023/09/13,20:30,0.529,0.805,0.490,0.985,0.706,0.322,0.571,0.531,��,4.2,��
2023/09/13,20:40,0.530,0.805,0.491,0.985,0.705,0.322,0.570,0.530,��,4.8,��
2023/09/13,20:50,0.530,0.803,0.491,0.985,0.702,0.322,0.570,0.528,��,4.9,��
2023/09/13,21:00,0.530,0.805,0.489,0.986,0.707,0.323,0.572,0.531,��,4.9,��
2023/09/13,21:10,0.531,0.806,0.491,0.986,0.705,0.323,0.571,0.530,��,3.6,��
2023/09/13,21:20,0.529,0.805,0.490,0.987,0.706,0.322,0.571,0.531,��,3.2,��
2023/09/13,21:30,0.530,0.805,0.492,0.988,0.704,0.323,0.572,0.531,��,3.4,��
2023/09/13,21:40,0.532,0.806,0.489,0.987,0.705,0.324,0.570,0.530,��,2.6,��
2023/09/13,21:50,0.532,0.804,0.491,0.987,0.706,0.324,0.570,0.531,��,2.3,��
2023/09/13,22:00,0.531,0.807,0.491,0.987,0.707,0.323,0.570,0.529,��쓌,2.8,��
2023/09/13,22:10,0.531,0.805,0.492,0.988,0.706,0.324,0.570,0.530,��쓌,1.4,��
2023/09/13,22:20,0.531,0.806,0.491,0.986,0.706,0.323,0.572,0.531,��쓌,1.4,��
2023/09/13,22:30,0.530,0.806,0.490,0.989,0.704,0.324,0.570,0.532,��쐼,2.0,��
2023/09/13,22:40,0.530,0.805,0.491,0.987,0.705,0.324,0.572,0.532,��,1.5,��
2023/09/13,22:50,0.532,0.806,0.492,0.988,0.706,0.324,0.570,0.532,��,1.7,��
2023/09/13,23:00,0.532,0.806,0.491,0.988,0.706,0.324,0.572,0.530,��,2.2,��
2023/09/13,23:10,0.531,0.807,0.491,0.988,0.704,0.325,0.572,0.530,��,1.7,��
2023/09/13,23:20,0.533,0.806,0.491,0.987,0.706,0.324,0.571,0.531,��,1.4,��
2023/09/13,23:30,0.532,0.805,0.492,0.987,0.706,0.323,0.572,0.530,��,1.2,��
2023/09/13,23:40,0.532,0.806,0.492,0.988,0.707,0.324,0.570,0.530,��쐼,1.1,��
2023/09/13,23:50,0.533,0.808,0.491,0.987,0.705,0.324,0.573,0.530,��,1.9,��
